User: anonymous   Login
Location: The D'Auria's Ocala Star Observatory
(29.0276°N, 82.1742°W)
Time: 00:40:36
(UTC-05:00)
Language:

Okean 3 Rocket - Orbit

View from above orbital plane
View from above orbital plane
View from above satellite
View from above satellite

Ground track
Ground track

The orbit data is extracted from the following two-line orbital elements,

1 21398U 91039B   16041.88746591  .00000253  00000-0  30658-4 0  9991
2 21398  82.5255 324.4254 0021505   0.5951  63.9756 14.79574992331111
Epoch (UTC): 10 February 2016 21:17:57
Eccentricity: 0.0021505
inclination: 82.5255°
perigee height: 615 km
apogee height: 646 km
right ascension of ascending node: 324.4254°
argument of perigee: 0.5951°
revolutions per day: 14.79574992
mean anomaly at epoch: 63.9756°
orbit number at epoch: 33111

The dashed part of the orbit path shows where the satellite is in the earth's shadow,  

DLR